Regional Weather Roundup
Issued by NWS

Home | Current Version | Previous Version | Text Only | Print | Product List | Glossary Off
Versions: 1 2 3 4 5 6 7 8 9 10 11 12 13 14 15 16 17 18 19 20 21 22 23 24 25 26 27 28 29 30 31 32 33 34 35 36 37 38 39 40 41 42 43 44 45 46 47 48 49 50

000
ASUS45 KSLC 280210
RWRUT

UTAH REGIONAL WEATHER ROUNDUP
NATIONAL WEATHER SERVICE SALT LAKE CITY UT
800 PM MDT WED MAY 27 2015

UTZ001>011-023>025-280300-

NORTHERN UTAH

CITY           SKY/WX    TMP DP  RH WIND       PRES   REMARKS
BRIGHAM CITY   CLOUDY    64  48  56 NW10G28   30.06R
HILL AFB       MOCLDY    62  47  57 NE3       30.05S THUNDER
LOGAN          CLOUDY    58  51  78 W7        30.04S
OGDEN          CLOUDY    63  49  60 NE5       30.04S
PROVO AIRPORT  MOCLDY    64  45  48 S17       30.08R
SALT LAKE CITY CLOUDY    67  45  45 NW12      30.03R
VERNAL         CLOUDY    56  47  71 N6        30.10R
WENDOVER       CLOUDY    61  48  63 E8        30.06R
HEBER CITY     CLOUDY    59  37  44 SW8       30.09R
WEST JORDAN    MOCLDY    64  48  55 NW6       30.06R

$$

UTZ012>022-026-027-280300-

SOUTHERN/CENTRAL UTAH

CITY           SKY/WX    TMP DP  RH WIND       PRES   REMARKS
BLANDING       CLEAR     69  36  29 W7        30.13R
BRYCE CANYON   PTCLDY    61  37  41 NW12      30.17R
CEDAR CITY     PTCLDY    62  43  49 N13G22    30.07R
DELTA          CLOUDY    58  46  63 SW15G29   30.14R
HANKSVILLE     CLOUDY    64  43  45 N21G26    30.03R
MILFORD        CLOUDY    56  47  71 N24G33    30.16R
MOAB/CYNLANDS  CLEAR     70  40  33 N18       29.99R
PRICE          LGT RAIN  52  45  77 CALM      30.15R
ST GEORGE      CLOUDY    86  27  11 W14       29.89R
KANAB          CLEAR     73  30  20 SW6       30.03R

$$

REGIONAL REPORTS     COLORADO/ARIZONA

CITY           SKY/WX    TMP DP  RH WIND       PRES   REMARKS
CRAIG, CO      CLOUDY    59  44  57 SW9       30.12R
GRAND JUNCTION CLOUDY    61  46  57 W23G33    30.06R
RIFLE          CLOUDY    65  45  48 NW15G22   30.06R
MONTROSE       PTCLDY    63  41  44 SE13      30.11S
CORTEZ         CLEAR     69  41  36 SW3       30.08R
PAGE, AZ       PTCLDY    81  34  18 NW7       29.95R
GRAND CANYON   PTCLDY    67  27  22 SW13      30.13R
KINGMAN        CLEAR     81  22  11 SW18G26   29.95R
FLAGSTAFF      CLEAR     62  27  26 SW10      30.17R

$$

REGIONAL REPORTS    NEVADA/IDAHO/WYOMING

CITY           SKY/WX    TMP DP  RH WIND       PRES   REMARKS
LAS VEGAS, NV  PTCLDY    92  31  11 S12G21    29.77S
ELY            TSTM      52  46  80 S12       30.13S
ELKO           MOSUNNY   68  43  40 E5        30.01R
POCATELLO, ID  MOCLDY    59  48  67 E10       30.02R
BURLEY         CLOUDY    62  46  55 W10       30.03R
EVANSTON, WY   MOCLDY    54  38  54 NW12      30.14S
ROCK SPRINGS   MOCLDY    51  44  77 S7        30.12S
KEMMERER       CLOUDY    52  37  58 NW10      30.15S

$$


USA.gov is the U.S. government's official web portal to all federal, state and local government web resources and services.